This is the latest recevied weather packets stored in our database for station/object N0FDH. If no packets are shown the sender has not sent any weather packets the latest 10 day(s).
| Time | Temp. | Humidity | Pressure | Rain* | Wind** | Luminosity | Snow |
|---|---|---|---|---|---|---|---|
| 1777912887 | 14.44° C | 49% | 997 hPa | 0 mm | - | 631 W/m² | - |
| 1777912585 | 14.44° C | 48% | 996.7 hPa | 0 mm | - | 305 W/m² | - |
| 1777912281 | 13.89° C | 52% | 996.6 hPa | 0 mm | - | 673 W/m² | - |
| 1777911976 | 13.89° C | 48% | 996.7 hPa | 0 mm | - | 703 W/m² | - |
| 1777911673 | 13.89° C | 51% | 996.6 hPa | 0 mm | - | 631 W/m² | - |
| 1777911369 | 13.89° C | 48% | 996.9 hPa | 0 mm | - | 452 W/m² | - |
| 1777911068 | 13.89° C | 48% | 997 hPa | 0 mm | - | 514 W/m² | - |
| 1777910764 | 13.89° C | 50% | 996.7 hPa | 0 mm | - | 556 W/m² | - |
| 1777910461 | 13.89° C | 49% | 996.6 hPa | 0 mm | - | 573 W/m² | - |
| 1777910157 | 13.89° C | 48% | 996.6 hPa | 0 mm | - | 530 W/m² | - |
| 1777909855 | 13.89° C | 47% | 996.7 hPa | 0 mm | - | 508 W/m² | - |
| 1777909551 | 13.89° C | 46% | 996.6 hPa | 0 mm | - | 559 W/m² | - |
| 1777909249 | 13.89° C | 48% | 996.5 hPa | 0 mm | - | 535 W/m² | - |
| 1777908947 | 13.89° C | 45% | 996.6 hPa | 0 mm | - | 528 W/m² | - |
| 1777908645 | 13.89° C | 47% | 996.3 hPa | 0 mm | - | 508 W/m² | - |
| 1777908341 | 13.89° C | 47% | 996.5 hPa | 0 mm | - | 264 W/m² | - |
| 1777908038 | 13.89° C | 47% | 996.3 hPa | 0 mm | - | 288 W/m² | - |
| 1777907733 | 13.89° C | 48% | 996 hPa | 0 mm | - | 322 W/m² | - |
| 1777907427 | 13.89° C | 47% | 996.1 hPa | 0 mm | - | 265 W/m² | - |
| 1777907125 | 13.33° C | 49% | 995.9 hPa | 0 mm | - | 143 W/m² | - |
| 1777906823 | 13.89° C | 49% | 996.1 hPa | 0 mm | - | 205 W/m² | - |
| 1777906520 | 13.89° C | 50% | 996 hPa | 0 mm | - | 181 W/m² | - |
| 1777906215 | 13.89° C | 47% | 995.7 hPa | 0 mm | - | 229 W/m² | - |
| 1777905912 | 14.44° C | 44% | 995.9 hPa | 0 mm | - | 280 W/m² | - |
| 1777905609 | 14.44° C | 46% | 995.7 hPa | 0 mm | - | 344 W/m² | - |
* Rain latest hour (hover to see other rain measurements)
** Current wind speed in m/s (hover to see current wind gust speed)